[[{"header":{"parameterUnit":"m.s-1","parameterCategory":1,"la1":30.2991,"la2":30.254,"lo1":-89.0895,"lo2":-89.0444,"dy":0.0017,"dx":0.0017,"nx":28,"ny":28,"refTime":"2024-04-13T09:00:00:Z","depth":0,"parameterNumber":2,"parameterNumberName":"U-component_of_WINDS"},"data":[0,0,0,0,0,0,0,0,0,0,0,0,0,0,0,0,0,0,0,0,0,0,0,0,0,0,0,0,0,0,0,0,0,0,0,0,0,0,0,0,0,0,0,0,0,0,0,0,0,0,0,0,0,0,0,0,0,0,-1.3844,-1.3845,0,-1.3907,-1.3907,-1.3908,-1.387,-1.3869,-1.3867,-1.3865,-1.3929,-1.3933,-1.3936,0,0,0,0,0,0,0,0,0,0,0,0,0,-1.369,-1.3693,-1.3844,-1.3845,-1.3845,-1.3907,-1.3907,-1.3908,-1.3871,-1.3868,-1.3866,-1.3864,-1.3928,-1.3932,-1.3936,0,0,0,0,0,0,0,0,0,0,0,0,0,-1.3755,-1.3694,-1.3844,-1.3834,-1.3834,-1.3906,-1.3908,-1.3909,-1.3871,-1.3868,-1.3866,-1.3863,-1.3927,-1.3932,-1.3937,-1.4023,0,0,-1.3952,-1.3955,0,0,0,0,0,0,0,0,-1.3752,-1.3761,-1.3835,-1.3835,-1.3835,-1.3878,-1.3877,-1.3947,-1.3872,-1.3857,-1.3865,-1.3862,-1.3914,-1.392,-1.3938,-1.4026,-1.4028,-1.3953,-1.3956,-1.3958,-1.396,0,0,0,0,0,0,0,-1.3747,-1.3758,-1.3869,-1.3836,-1.3836,-1.3826,-1.3832,-1.389,-1.39,-1.3858,-1.3855,-1.3863,-1.3914,-1.3933,-1.3939,-1.4029,-1.3953,-1.3957,-1.396,-1.3962,-1.4189,-1.4192,0,0,0,0,0,0,-1.3744,-1.3755,-1.3867,-1.3871,-1.3786,-1.3831,-1.3838,-1.3867,-1.3899,-1.3902,-1.3866,-1.3861,-1.3926,-1.3933,-1.3941,-1.4044,-1.3958,-1.3963,-1.3966,-1.4186,-1.419,-1.4193,0,0,0,0,0,0,-1.374,-1.3754,-1.3864,-1.3812,-1.3825,-1.3837,-1.3869,-1.3869,-1.3889,-1.3905,-1.3907,-1.3884,-1.3924,-1.3934,-1.4002,-1.4045,-1.3965,-1.397,-1.4183,-1.4187,-1.4192,-1.4249,0,0,0,0,0,0,-1.3736,-1.3753,-1.3786,-1.3813,-1.3828,-1.3925,-1.3872,-1.3873,-1.3898,-1.3893,-1.3922,-1.3925,-1.3923,-1.3995,-1.4008,-1.4051,-1.3974,-1.4179,-1.4185,-1.419,-1.4244,-1.4255,-1.4265,0,0,0,0,0,-1.3731,-1.38,-1.3788,-1.3802,-1.387,-1.3927,-1.3936,-1.3932,-1.3901,-1.3934,-1.3945,-1.3924,-1.4038,-1.4002,-1.4016,-1.4062,-1.4176,-1.4183,-1.419,-1.4239,-1.4253,-1.4265,0,0,0,0,0,0,-1.3778,-1.3803,-1.379,-1.387,-1.3897,-1.3921,-1.3963,-1.3947,-1.3983,-1.3977,-1.3971,-1.3978,-1.4049,-1.4062,-1.4021,-1.4146,-1.4103,-1.4112,-1.4135,-1.4149,-1.4159,-1.4155,-1.3978,0,0,0,0,0,-1.3798,-1.3843,-1.3862,-1.3931,-1.3945,-1.3951,-1.3976,-1.3971,-1.3998,-1.4009,-1.4025,-1.4052,-1.4094,-1.4122,-1.4161,-1.4245,-1.4251,-1.4283,-1.4294,-1.4302,-1.4311,-1.4356,-1.437,-1.4215,-1.4215,-1.4215,0,0,-1.3839,-1.3858,-1.3887,-1.3941,-1.3961,-1.4007,-1.3961,-1.4012,-1.4046,-1.4017,-1.4083,-1.4095,-1.4124,-1.4201,-1.4235,-1.4214,-1.4355,-1.4311,-1.4318,-1.4322,-1.4364,-1.4379,-1.4392,-1.422,-1.4219,-1.4218,0,0,-1.3938,-1.3957,-1.4016,-1.4037,-1.4068,-1.4072,-1.4086,-1.4112,-1.4119,-1.4184,-1.4163,-1.4203,-1.4276,-1.4298,-1.4318,-1.4424,-1.4406,-1.4437,-1.4494,-1.4537,-1.4549,-1.456,-1.4598,-1.4612,-1.4446,-1.4446,-1.4446,0,-1.3986,-1.4055,-1.4049,-1.4101,-1.4125,-1.41,-1.416,-1.418,-1.4222,-1.4239,-1.4215,-1.4305,-1.4323,-1.4404,-1.443,-1.4447,-1.4463,-1.4434,-1.4548,-1.4559,-1.4569,-1.4605,-1.4619,-1.4449,-1.4449,-1.4449,-1.4448,0,-1.4111,-1.416,-1.4204,-1.4245,-1.4274,-1.4329,-1.4331,-1.4361,-1.4353,-1.4359,-1.4426,-1.4446,-1.449,-1.4508,-1.4501,-1.4588,-1.4573,-1.4549,-1.4505,-1.4587,-1.4621,-1.4635,-1.4455,-1.4453,-1.4452,-1.4451,0,0,-1.4243,-1.428,-1.4296,-1.4314,-1.4345,-1.4382,-1.4436,-1.4479,-1.4504,-1.4534,-1.4579,-1.464,-1.4617,-1.4641,-1.4635,-1.4673,-1.4756,-1.4644,-1.4644,-1.4664,-1.4852,-1.4871,-1.4887,-1.4743,-1.4746,-1.4748,-1.485,0,-1.4344,-1.444,-1.4435,-1.4524,-1.4568,-1.4544,-1.4591,-1.4616,-1.4623,-1.4661,-1.4668,-1.4712,-1.4678,-1.4692,-1.4728,-1.4738,-1.4794,-1.473,-1.4785,-1.4787,-1.4779,-1.4905,-1.4925,-1.5021,-1.4863,-1.4865,-1.4867,0,-1.4475,-1.4509,-1.4603,-1.4627,-1.4645,-1.4688,-1.4725,-1.4762,-1.4789,-1.4791,-1.4817,-1.4805,-1.4859,-1.4813,-1.4888,-1.4845,-1.4867,-1.4875,-1.4878,-1.4884,-1.4833,-1.4914,-1.5051,-1.5066,-1.4888,-1.4886,-1.4884,0,-1.4563,-1.4631,-1.4696,-1.4712,-1.4742,-1.4772,-1.4786,-1.4809,-1.4835,-1.4867,-1.4884,-1.4922,-1.4944,-1.4974,-1.4972,-1.4939,-1.5048,-1.5002,-1.5051,-1.5051,-1.5076,-1.5074,-1.5218,-1.5089,-1.5089,-1.5089,-1.5088,0,-1.4676,-1.4734,-1.4735,-1.4775,-1.4839,-1.4833,-1.4896,-1.4907,-1.4928,-1.4969,-1.495,-1.4989,-1.4984,-1.5023,-1.5022,-1.5084,-1.5094,-1.5097,-1.5096,-1.5099,-1.5099,-1.5114,-1.5108,-1.5092,-1.5091,-1.5091,-1.509,0,-1.4785,-1.4788,-1.4857,-1.4879,-1.4886,-1.4932,-1.4951,-1.4988,-1.4993,-1.5045,-1.5057,-1.5064,-1.5109,-1.511,-1.5162,-1.5161,-1.5236,-1.5228,-1.5227,-1.5226,-1.5275,-1.5271,-1.5434,-1.5456,-1.5312,-1.5313,-1.5315,0,-1.4858,-1.4902,-1.4929,-1.4955,-1.497,-1.5013,-1.5038,-1.5033,-1.506,-1.5093,-1.5127,-1.517,-1.5204,-1.5276,-1.5286,-1.5325,-1.5318,-1.5372,-1.5323,-1.5325,-1.5319,-1.5316,-1.5321,-1.5382,-1.5384,-1.5385,-1.5386,0,-1.4987,-1.4986,-1.5023,-1.5061,-1.5092,-1.5122,-1.515,-1.5172,-1.517,-1.5201,-1.5247,-1.5273,-1.5325,-1.5368,-1.5406,-1.5419,-1.5403,-1.5401,-1.5414,-1.5418,-1.5417,-1.5418,-1.5254,-1.5398,-1.5396,-1.5396,-1.5395,-1.5394,-1.508,-1.5118,-1.5142,-1.5185,-1.5205,-1.523,-1.5267,-1.5275,-1.5313,-1.5355,-1.535,-1.54,-1.5425,-1.5473,-1.549,-1.5529,-1.551,-1.553,-1.5535,-1.554,-1.5545,-1.541,-1.5536,-1.5535,-1.5535,-1.5535,-1.5535,0,-1.5208,-1.5222,-1.5261,-1.53,-1.5333,-1.5314,-1.5343,-1.5372,-1.5417,-1.5441,-1.5475,-1.5526,-1.5567,-1.558,-1.562,-1.5648,-1.5642,-1.5659,-1.5657,-1.5661,-1.556,-1.5544,-1.5664,-1.5664,-1.5664,-1.5664,-1.5664,-1.5664,-1.5279,-1.5342,-1.5343,-1.5416,-1.5429,-1.5479,-1.5497,-1.5521,-1.554,-1.5598,-1.5632,-1.564,-1.5659,-1.57,-1.5737,-1.5739,-1.5755,-1.5775,-1.5775,-1.5681,-1.5668,-1.5655,-1.5641,-1.5779,-1.5779,-1.5872,-1.5873,-1.5874]},{"header":{"parameterUnit":"m.s-1","parameterCategory":1,"la1":30.2991,"la2":30.254,"lo1":-89.0895,"lo2":-89.0444,"dy":0.0017,"dx":0.0017,"nx":28,"ny":28,"refTime":"2024-04-13T09:00:00:Z","depth":0,"parameterNumber":3,"parameterNumberName":"V-component_of_WINDS"},"data":[0,0,0,0,0,0,0,0,0,0,0,0,0,0,0,0,0,0,0,0,0,0,0,0,0,0,0,0,0,0,0,0,0,0,0,0,0,0,0,0,0,0,0,0,0,0,0,0,0,0,0,0,0,0,0,0,0,0,-2.5456,-2.5456,0,-2.552,-2.5521,-2.5522,-2.5501,-2.55,-2.5499,-2.5497,-2.556,-2.5563,-2.5566,0,0,0,0,0,0,0,0,0,0,0,0,0,-2.531,-2.5312,-2.5455,-2.5456,-2.5457,-2.552,-2.5521,-2.5522,-2.5502,-2.55,-2.5498,-2.5497,-2.5559,-2.5563,-2.5566,0,0,0,0,0,0,0,0,0,0,0,0,0,-2.5374,-2.5313,-2.5455,-2.5455,-2.5455,-2.552,-2.5521,-2.5522,-2.5502,-2.55,-2.5498,-2.5496,-2.5558,-2.5562,-2.5567,-2.5635,0,0,-2.558,-2.5582,0,0,0,0,0,0,0,0,-2.537,-2.5379,-2.5454,-2.5455,-2.5456,-2.5501,-2.5493,-2.556,-2.5503,-2.5484,-2.5497,-2.5495,-2.5542,-2.5547,-2.5564,-2.5638,-2.564,-2.558,-2.5583,-2.5585,-2.5586,0,0,0,0,0,0,0,-2.5366,-2.5376,-2.5481,-2.5455,-2.5456,-2.545,-2.5457,-2.5505,-2.5523,-2.5486,-2.5484,-2.5492,-2.5542,-2.556,-2.5565,-2.5641,-2.558,-2.5584,-2.5587,-2.5589,-2.5774,-2.5776,0,0,0,0,0,0,-2.5361,-2.5372,-2.5479,-2.5483,-2.5407,-2.5454,-2.5462,-2.5488,-2.5523,-2.5526,-2.5494,-2.5491,-2.5553,-2.556,-2.5567,-2.5649,-2.5585,-2.5589,-2.5592,-2.5771,-2.5774,-2.5777,0,0,0,0,0,0,-2.5358,-2.5371,-2.5476,-2.5427,-2.544,-2.5459,-2.5489,-2.5491,-2.5509,-2.553,-2.5532,-2.5509,-2.5552,-2.5561,-2.5618,-2.5651,-2.5591,-2.5595,-2.5769,-2.5772,-2.5775,-2.5814,0,0,0,0,0,0,-2.5354,-2.537,-2.5397,-2.5428,-2.5443,-2.5528,-2.5491,-2.5493,-2.5517,-2.5514,-2.5545,-2.5548,-2.5551,-2.5612,-2.5623,-2.5656,-2.5599,-2.5766,-2.577,-2.5774,-2.581,-2.5818,-2.5825,0,0,0,0,0,-2.5349,-2.5405,-2.5399,-2.5412,-2.5478,-2.553,-2.5538,-2.5542,-2.552,-2.5546,-2.556,-2.5547,-2.5646,-2.5618,-2.563,-2.5665,-2.5764,-2.5769,-2.5774,-2.5806,-2.5817,-2.5825,0,0,0,0,0,0,-2.5375,-2.5409,-2.5402,-2.547,-2.5497,-2.5526,-2.556,-2.5553,-2.5586,-2.5581,-2.5583,-2.559,-2.5649,-2.5663,-2.5631,-2.5733,-2.5701,-2.5709,-2.5722,-2.5732,-2.5739,-2.5735,-2.5602,0,0,0,0,0,-2.5389,-2.543,-2.5456,-2.5513,-2.5528,-2.5542,-2.5564,-2.5565,-2.5593,-2.5604,-2.5621,-2.5648,-2.5684,-2.5709,-2.5744,-2.5812,-2.5818,-2.5842,-2.5849,-2.5856,-2.5862,-2.5899,-2.5909,-2.5793,-2.5793,-2.5793,0,0,-2.5418,-2.5441,-2.5467,-2.5519,-2.5541,-2.5582,-2.5551,-2.5596,-2.5626,-2.561,-2.5666,-2.5679,-2.5709,-2.5771,-2.58,-2.5784,-2.5896,-2.5862,-2.5867,-2.587,-2.5905,-2.5916,-2.5926,-2.5797,-2.5796,-2.5796,0,0,-2.5492,-2.5514,-2.5564,-2.5586,-2.5619,-2.5627,-2.5639,-2.567,-2.5678,-2.5734,-2.5723,-2.5758,-2.5822,-2.5843,-2.5863,-2.5944,-2.5933,-2.5955,-2.5996,-2.6031,-2.604,-2.6048,-2.6077,-2.6087,-2.5962,-2.5962,-2.5962,0,-2.5523,-2.5586,-2.559,-2.5636,-2.5659,-2.5648,-2.5697,-2.5718,-2.576,-2.5776,-2.5758,-2.5838,-2.5857,-2.5925,-2.5945,-2.5961,-2.5973,-2.5952,-2.6039,-2.6047,-2.6055,-2.6082,-2.6093,-2.5964,-2.5964,-2.5964,-2.5963,0,-2.5622,-2.5665,-2.5702,-2.5744,-2.5771,-2.5819,-2.5829,-2.5855,-2.5854,-2.5864,-2.592,-2.5943,-2.5982,-2.5998,-2.5996,-2.6065,-2.6055,-2.6038,-2.6007,-2.6068,-2.6094,-2.6104,-2.5968,-2.5967,-2.5966,-2.5966,0,0,-2.5714,-2.5759,-2.5772,-2.5791,-2.5826,-2.5859,-2.5905,-2.5945,-2.5968,-2.5997,-2.6035,-2.609,-2.6075,-2.6097,-2.6097,-2.6128,-2.619,-2.6107,-2.6108,-2.6122,-2.6267,-2.6279,-2.6291,-2.6183,-2.6185,-2.6187,-2.6264,0,-2.579,-2.5874,-2.5879,-2.5954,-2.5993,-2.5983,-2.6023,-2.6048,-2.6059,-2.6093,-2.6104,-2.6143,-2.612,-2.6133,-2.6164,-2.6176,-2.6219,-2.6171,-2.6218,-2.622,-2.6211,-2.6304,-2.6318,-2.6389,-2.6274,-2.6276,-2.6277,0,-2.589,-2.5924,-2.6003,-2.6033,-2.605,-2.6086,-2.6123,-2.6156,-2.6184,-2.619,-2.6214,-2.621,-2.6256,-2.6223,-2.6286,-2.6253,-2.6273,-2.6282,-2.6285,-2.6289,-2.6252,-2.6311,-2.6412,-2.6423,-2.6293,-2.6292,-2.6291,0,-2.5949,-2.6014,-2.607,-2.6087,-2.6123,-2.6148,-2.6164,-2.619,-2.6214,-2.6245,-2.6261,-2.6297,-2.6316,-2.6344,-2.6349,-2.6325,-2.6412,-2.638,-2.6417,-2.6417,-2.6436,-2.6434,-2.6541,-2.6449,-2.6448,-2.6448,-2.6448,0,-2.6034,-2.6082,-2.6097,-2.6131,-2.6185,-2.619,-2.6243,-2.6257,-2.628,-2.6316,-2.6308,-2.6342,-2.6347,-2.6381,-2.6385,-2.6437,-2.6446,-2.6451,-2.6451,-2.6451,-2.6451,-2.6464,-2.6459,-2.6451,-2.645,-2.645,-2.6449,0,-2.6108,-2.612,-2.618,-2.621,-2.6218,-2.6257,-2.6281,-2.6313,-2.6323,-2.6369,-2.6379,-2.6395,-2.6435,-2.6443,-2.649,-2.6492,-2.6553,-2.6549,-2.6545,-2.6544,-2.6581,-2.6577,-2.67,-2.6716,-2.6613,-2.6614,-2.6615,0,-2.6161,-2.6199,-2.6233,-2.6257,-2.6274,-2.6313,-2.6338,-2.6343,-2.6368,-2.6403,-2.6431,-2.647,-2.6502,-2.6566,-2.6581,-2.6616,-2.6613,-2.6653,-2.6618,-2.6617,-2.6613,-2.6611,-2.6614,-2.666,-2.6661,-2.6662,-2.6663,0,-2.6254,-2.6258,-2.6294,-2.6333,-2.6362,-2.6392,-2.642,-2.644,-2.6449,-2.6478,-2.652,-2.6544,-2.6593,-2.6632,-2.6668,-2.6682,-2.6674,-2.6674,-2.6684,-2.6685,-2.6681,-2.6683,-2.6563,-2.6671,-2.667,-2.6669,-2.6669,-2.6669,-2.6319,-2.6352,-2.6381,-2.6421,-2.6444,-2.647,-2.6502,-2.6517,-2.6552,-2.6593,-2.6593,-2.6639,-2.6665,-2.6712,-2.6729,-2.6764,-2.6751,-2.6766,-2.677,-2.6773,-2.6777,-2.6675,-2.677,-2.677,-2.677,-2.6769,-2.6769,0,-2.6412,-2.643,-2.6467,-2.6508,-2.6539,-2.653,-2.656,-2.6587,-2.6627,-2.6653,-2.6685,-2.6732,-2.677,-2.6788,-2.6825,-2.6849,-2.6846,-2.6858,-2.6856,-2.686,-2.6786,-2.6774,-2.686,-2.686,-2.686,-2.686,-2.686,-2.686,-2.6463,-2.6518,-2.6526,-2.6591,-2.6609,-2.6654,-2.6672,-2.6697,-2.6717,-2.6771,-2.6803,-2.6814,-2.6837,-2.6875,-2.6909,-2.6913,-2.6927,-2.6941,-2.6943,-2.6874,-2.6865,-2.6856,-2.6844,-2.6944,-2.6944,-2.7014,-2.7014,-2.7015]}]]